AO-07 1 07530U 74089B 26208.54125306 -.00000024 00000-0 14195-3 0 9997 2 07530 101.9910 222.2088 0012579 55.4579 98.9910 12.53698780365572 UO-11 1 14781U 84021B 26208.89491605 .00001517 00000-0 15949-3 0 9991 2 14781 97.8089 174.0242 0008950 56.2673 303.9397 14.90879901263198 LO-19 1 20442U 90005G 26208.01974548 .00000124 00000-0 60864-4 0 9997 2 20442 98.8846 230.9213 0012686 89.7372 270.5265 14.34133627908105 AO-27 1 22825U 93061C 26209.18485647 .00000089 00000-0 50996-4 0 9990 2 22825 98.6858 276.5785 0008004 348.0839 12.0153 14.30951892712860 FO-29 1 24278U 96046B 26209.12182700 -.00000020 00000-0 16688-4 0 9994 2 24278 98.5209 52.3826 0349712 350.4111 9.0468 13.53275883478703 GO-32 1 25397U 98043D 26209.22668029 .00000058 00000-0 45155-4 0 9991 2 25397 99.0096 203.0256 0002374 94.4379 265.7070 14.24435555457170 ISS 1 25544U 98067A 26209.15252568 .00010831 00000-0 20282-3 0 9993 2 25544 51.6320 97.3682 0007093 345.6120 14.4666 15.49220842578109 NO-44 1 26931U 01043C 26209.15836765 .00000130 00000-0 79324-4 0 9992 2 26931 67.0508 138.3015 0005805 267.7866 92.2572 14.31969474296316 SO-50 1 27607U 02058C 26208.68108592 .00001287 00000-0 16839-3 0 9992 2 27607 64.5529 3.6894 0074146 254.9838 104.3054 14.83123076270467 CO-55 1 27844U 03031E 26208.99142194 .00000300 00000-0 14846-3 0 9998 2 27844 98.6749 217.0391 0010760 69.7499 290.4835 14.24358480197480 RS-22 1 27939U 03042A 26209.23227932 .00000908 00000-0 14781-3 0 9999 2 27939 98.3479 34.7547 0012113 133.5526 313.3025 14.73534179221595 CO-65 1 32785U 08021C 26209.21146608 .00005203 00000-0 32592-3 0 9997 2 32785 97.8303 191.5008 0006950 243.3844 116.6673 15.09807315991388 CO-66 1 32791U 08021J 26208.92036169 .00020623 00000-0 62704-3 0 9992 2 32791 97.7535 208.8069 0004293 133.7191 226.4407 15.34065834993539 RS-30 1 32953U 08025A 26209.14229058 .00000017 00000-0 52642-4 0 9998 2 32953 82.5068 329.9647 0019003 219.4699 140.4997 12.43181265824782 SRMSAT 1 37841U 11058D 26209.21402866 .00000371 00000-0 57503-4 0 9991 2 37841 19.9704 171.1400 0011534 295.5726 92.2208 14.11583453763621 ZACUBE-1 1 39417U 13066B 26208.93109270 .00004598 00000-0 35397-3 0 9995 2 39417 97.7984 171.4630 0043922 114.5451 246.0361 15.01401617686843 Delfi-N3xt 1 39428U 13066N 26208.73074268 .00009179 00000-0 78687-3 0 9992 2 39428 97.8318 129.0095 0075940 72.2877 288.6615 14.95506657680680 GOMX-1 1 39430U 13066Q 26209.17609770 .00001137 00000-0 17711-3 0 9993 2 39430 97.6463 47.0532 0127174 306.2801 52.6711 14.69568897675934 LO-74 1 39440U 13066AA 26208.85361079 .00003346 00000-0 30990-3 0 9993 2 39440 97.8912 158.0168 0055678 252.2037 107.3103 14.94034888683066 AO-73 1 39444U 13066AE 26208.88425532 .00009722 00000-0 59256-3 0 9995 2 39444 97.8293 181.1998 0037637 66.5944 293.9236 15.09983837685805 DTUSAT-2 1 40030U 14033W 26207.99204239 .00007114 00000-0 37927-3 0 9997 2 40030 98.0882 208.2641 0009767 98.6017 261.6321 15.15486135658714 LILACSAT-2 1 40908U 15049K 26209.21111516 .00020547 00000-0 33290-3 0 9995 2 40908 97.4620 247.6414 0008677 103.7627 256.4592 15.52779418602115 Lapan A3 1 41603U 16040E 26209.24230784 .00003230 00000-0 10247-3 0 9999 2 41603 97.1510 204.0508 0008838 219.2711 140.7892 15.33347048561100 CAS-2T 1 41847U 16066G 26209.17069721 .00000716 00000-0 10927-3 0 9991 2 41847 98.3807 284.4380 0341486 5.4297 355.0449 14.44788632510714 TechnoSat 1 42829U 17042E 26209.00389338 .00002659 00000-0 19022-3 0 9991 2 42829 97.4317 5.1248 0016482 318.2185 41.7782 15.05165798492840 AO-91 1 43017U 17073E 26209.14690911 .00007868 00000-0 33964-3 0 9990 2 43017 97.4653 75.5276 0148916 186.4494 173.4825 15.13224540471580 S-Net D 1 43186U 18014G 26209.16402248 .00005229 00000-0 26778-3 0 9993 2 43186 97.5319 113.7000 0006585 227.6530 132.4146 15.17021096464972 S-Net B 1 43187U 18014H 26208.71455333 .00004819 00000-0 24727-3 0 9993 2 43187 97.5326 113.2411 0007279 224.8659 135.1987 15.16986030464907 S-Net A 1 43188U 18014J 26209.16267597 .00005308 00000-0 27168-3 0 9993 2 43188 97.5335 113.9029 0007169 223.7613 136.3053 15.17029423464975 S-Net C 1 43189U 18014K 26209.18039260 .00004847 00000-0 24866-3 0 9999 2 43189 97.5352 114.0017 0008715 216.6900 143.3738 15.16981326463528 Ten-Koh 1 43677U 18084G 26209.06673442 .00002235 00000-0 17054-3 0 9991 2 43677 98.0767 43.1545 0008971 354.1164 5.9953 15.03097942422309 PO-101 1 43678U 18084H 26209.18059542 .00001598 00000-0 13154-3 0 9992 2 43678 98.1218 47.1878 0011937 43.4683 316.7478 15.00603078422366 QO-100 1 43700U 18090A 26209.17968286 .00000148 00000-0 00000 0 0 9990 2 43700 0.0175 61.7908 0002458 94.9587 239.5529 1.00271132 28081 MinXSS-2 1 43758U 18099A 26209.19608514 .00048235 00000-0 86526-3 0 9999 2 43758 97.4514 286.7611 0008572 119.7868 240.4236 15.49734802420473 AO-95 1 43770U 18099N 26209.09619448 .00013197 00000-0 49206-3 0 9993 2 43770 97.4368 269.2081 0008483 190.8862 169.2195 15.27523472419460 SNUSat 2 1 43782U 18099AA 26209.09175120 .00009978 00000-0 43368-3 0 9995 2 43782 97.4038 261.8564 0011397 145.5191 214.6787 15.22420774419256 SnugLite 1 43784U 18099AC 26209.08383451 .00013358 00000-0 49098-3 0 9997 2 43784 97.3849 262.9781 0004476 128.8386 231.3253 15.28014932419569 ITASat 1 1 43786U 18099AE 26209.11961819 .00007267 00000-0 34458-3 0 9999 2 43786 97.4006 259.8209 0011898 201.2980 158.7761 15.19524774419127 EAGLET 1 1 43790U 18099AJ 26209.12095683 .00004151 00000-0 23701-3 0 9990 2 43790 97.4210 257.7065 0010630 195.1859 164.9055 15.13219956418520 ESEO 1 43792U 18099AL 26209.08880669 .00001437 00000-0 10709-3 0 9991 2 43792 97.3960 244.7243 0011744 184.0091 176.1043 15.04361166417958 JO-97 1 43803U 18099AX 26209.11863177 .00020709 00000-0 61259-3 0 9992 2 43803 97.4107 272.1241 0007326 120.8497 239.3468 15.34910961419903 Suomi 100 1 43804U 18099AY 26209.11256744 .00015162 00000-0 53436-3 0 9994 2 43804 97.4170 269.3725 0011370 131.7397 228.4817 15.29316485419679 ISAT 1 43879U 18111D 26208.78041448 .00150439 00000-0 10494-2 0 9999 2 43879 97.5838 147.3731 0008995 122.8062 237.4069 15.73825236417534 UWE-4 1 43880U 18111E 26209.08553860 .00040526 00000-0 75826-3 0 9997 2 43880 97.5832 139.4347 0008248 151.9008 208.2688 15.48570737417100 Sparrow 1 43881U 18111F 26207.79487216 .00382160 57615-4 11751-2 0 9992 2 43881 97.6058 152.8609 0009892 142.2872 217.9096 15.91719135417633 Prox-1 1 44339U 19036A 26209.07985620 .00014137 00000-0 13487-2 0 9999 2 44339 23.9923 200.8931 0006449 147.2370 212.8530 14.91497664379587 Taurus 1 1 44530U 19059C 26209.22349734 .00005615 00000-0 89239-3 0 9994 2 44530 98.6443 16.6167 0008863 174.5854 185.5449 14.72486736364689 TO-108 1 44881U 19093C 26209.17188041 .00001172 00000-0 13808-3 0 9990 2 44881 97.7520 280.4009 0012423 317.5738 42.4517 14.86579462357501 RS-44 1 44909U 19096E 26208.26799597 -.00000004 00000-0 -66215-4 0 9993 2 44909 82.5246 313.0750 0218249 50.8858 311.1425 12.79748797307473 SALSAT 1 46495U 20068K 26209.01933591 .00008656 00000-0 29739-3 0 9992 2 46495 97.8861 214.5891 0010563 149.9566 210.2281 15.30333587321600 CSS (TIANHE-1) 1 48274U 21035A 26209.09711337 .00021928 00000-0 28259-3 0 9997 2 48274 41.4686 73.6140 0001168 304.6809 55.3919 15.58497226299554 CUTE 1 49263U 21088D 26197.83813593 .08921004 25505-5 41832-3 0 9995 2 49263 97.3907 300.4441 0014216 277.7997 82.1689 16.41647044267308 TeikyoSat 4 1 49396U 21102B 26209.08533866 .00002206 00000-0 14069-3 0 9998 2 49396 97.3660 236.9788 0012970 145.8444 214.3622 15.09639306258890 Z-Sat 1 49399U 21102E 26209.18816771 .00004113 00000-0 20151-3 0 9999 2 49399 97.3311 243.2695 0018366 103.1749 257.1536 15.18552033259660 KOSEN 1 1 49402U 21102H 26209.09502464 .00008494 00000-0 31849-3 0 9997 2 49402 97.3167 250.4663 0015059 67.3961 292.8870 15.27382641260263 HO-113 1 50466U 21131B 26209.21967035 .00000297 00000-0 10540-3 0 9992 2 50466 98.4990 301.3877 0003689 354.3490 5.7657 14.41390792241024 SNUGLITE 2 1 52899U 22065F 26209.16500171 .00001022 00000-0 20240-3 0 9994 2 52899 98.2253 353.9358 0006235 251.7135 108.3389 14.64415134216992 UmKA 1 (RS40S) 1 57172U 23091G 26209.21043213 .00005991 00000-0 27093-3 0 9990 2 57172 97.5030 267.7554 0011718 343.9468 16.1394 15.21247623170240 CubeBel-2 (EU11S) 1 57175U 23091K 26209.20013604 .00014999 00000-0 51654-3 0 9991 2 57175 97.5031 272.8047 0008237 338.3237 21.7654 15.30104204170576 RS-38S 1 57189U 23091Z 26209.17249894 .00019177 00000-0 52706-3 0 9996 2 57189 97.5074 279.5096 0005213 281.0496 79.0161 15.37246103170984 SONATE-2 1 59112U 24043Q 26208.92795815 .00047274 00000-0 54491-3 0 9995 2 59112 97.5566 1.9292 0006007 62.0250 298.1614 15.61803488134248 GRBBeta 1 60237U 24128C 26208.63505263 .00004167 00000-0 28826-3 0 9990 2 60237 61.9900 74.3289 0035313 143.5062 216.8448 15.06885113112368 Curium One 1 60242U 24128H 26209.15167354 .00009016 00000-0 51219-3 0 9999 2 60242 61.9785 60.6278 0034710 139.0942 221.2768 15.13036308112657 ROBUSTA-3A 1 60243U 24128J 26209.14003122 .00009536 00000-0 55360-3 0 9999 2 60243 61.9865 63.3708 0036278 136.8022 223.5929 15.12158307112613 CatSat 1 60246U 24125J 26208.58424917 .00076393 00000-0 80379-3 0 9998 2 60246 97.2048 61.7550 0018109 38.3122 321.9420 15.63851495113690 HYPERVIEW-1G (RS66S) 1 61772U 24199AP 26209.09461424 .00308185 37777-4 93096-3 0 9997 2 61772 97.2760 91.2921 0007827 129.7977 230.3988 15.92101893141149 AO-123 1 61781U 24199AY 26209.14344176 .00008605 00000-0 24520-3 0 9992 2 61781 97.2947 77.4489 0014420 154.5499 205.6458 15.36221825140213 JINJUSat 1B 1 63210U 25052A 26208.52108630 .00018263 00000-0 54465-3 0 9996 2 63210 97.3958 105.3545 0001517 344.6492 15.4705 15.34704147 76285 NUSHSAT 1 1 63211U 25052B 26209.21179206 .00024775 00000-0 67394-3 0 9991 2 63211 97.3928 106.7629 0001284 9.0400 351.0868 15.37522881 76446 TEVEL2-4 1 63213U 25052D 26208.20046728 .00020041 00000-0 57403-3 0 9995 2 63213 97.3851 104.6857 0002085 30.6703 329.4663 15.35954659 76250 TEVEL2-5 1 63214U 25052E 26208.22572217 .00019518 00000-0 56262-3 0 9994 2 63214 97.3850 104.6472 0002290 32.3645 327.7739 15.35761076 76259 TEVEL2-6 1 63215U 25052F 26208.23897430 .00019211 00000-0 55444-3 0 9994 2 63215 97.3858 104.6452 0002209 33.5282 326.6102 15.35725425 76256 TEVEL2-1 1 63217U 25052H 26208.21738020 .00018953 00000-0 55724-3 0 9996 2 63217 97.3828 104.1985 0002997 34.0260 326.1175 15.35142068 76236 TEVEL2-3 1 63218U 25052J 26209.18813017 .00022063 00000-0 64589-3 0 9990 2 63218 97.3830 105.1983 0002696 38.5202 321.6233 15.35247884 76383 TEVEL2-2 1 63219U 25052K 26209.19514176 .00021196 00000-0 62175-3 0 9991 2 63219 97.3827 105.1807 0002814 32.3975 327.7441 15.35193169 76380 TEVEL2-9 1 63237U 25052AD 26208.50894344 .00017643 00000-0 55354-3 0 9996 2 63237 97.3893 103.7786 0006259 21.3432 338.8070 15.33081855 76204 TEVEL2-7 1 63238U 25052AE 26209.21082362 .00018677 00000-0 59131-3 0 9990 2 63238 97.3886 104.3778 0006246 19.1217 341.0258 15.32781838 76309 TEVEL2-8 1 63239U 25052AF 26208.95832927 .00018470 00000-0 58519-3 0 9991 2 63239 97.3892 104.1013 0006285 19.9482 340.2005 15.32758854 76260 SPIRONE 1 66657U 25274H 26208.24961354 .00001919 00000-0 18664-3 0 9990 2 66657 97.7469 136.9710 0010524 237.3421 122.6784 14.93694262 36202 K-HERO 1 66660U 25274L 26208.24318830 .00001771 00000-0 17091-3 0 9998 2 66660 97.7479 137.1549 0012336 242.8636 117.1327 14.94099521 36213 SNUGLITE-III DURI 1 66661U 25274M 26208.23011249 .00001925 00000-0 18515-3 0 9995 2 66661 97.7475 137.1630 0012974 243.9724 116.0160 14.94123662 36216 SAKHACUBE-CHOLBON 1 67290U 25313AU 26208.18003534 .00009467 00000-0 37552-3 0 9991 2 67290 97.3921 282.7288 0008643 204.1620 155.9214 15.25549521 32078 RS95S (QMR-KWT-2) 1 67291U 25313AV 26208.19312125 .00013997 00000-0 52592-3 0 9996 2 67291 97.3922 283.0089 0008476 200.8616 159.2278 15.27254224 32099 Ten-Koh2 1 68261U 25241B 26209.06261780 .00008397 00000-0 35194-3 0 9998 2 68261 51.6556 125.0298 0004975 273.4755 86.5655 15.24311798 21142 JACK-002 1 68417U 26067B 26209.11863986 .00007455 00000-0 35061-3 0 9997 2 68417 97.4584 167.2222 0003843 112.3365 247.8277 15.19854323 18160 DISCO 2 1 68431U 26067R 26209.14690591 .00009282 00000-0 43837-3 0 9996 2 68431 97.4623 167.2409 0002127 149.6856 210.4502 15.19644069 18160 HADES-SA (SpinnyONE) 1 68446U 26067AG 26208.32048383 .00019161 00000-0 88187-3 0 9991 2 68446 97.4415 166.0570 0004308 311.9002 48.1865 15.20355710 18028 PARUS-6U1 1 68456U 26067AS 26208.86744747 .00005928 00000-0 29556-3 0 9999 2 68456 97.4574 166.6223 0003586 290.4938 69.5911 15.17911871 18102 SAL-E 1 68458U 26067AU 26207.86583761 .00007648 00000-0 37618-3 0 9996 2 68458 97.4499 165.5506 0003905 311.1756 48.9141 15.18286015 17950 FSI-SAT 2 1 68792U 26088A 26208.92217735 .00003848 00000-0 25975-3 0 9994 2 68792 97.5109 357.1779 0013392 333.9523 26.1029 15.07123880 14426 OrigamiSat 2 1 68795U 26088D 26208.87260053 .00013316 00000-0 83066-3 0 9998 2 68795 97.5111 357.3997 0013358 300.5270 59.4640 15.09567782 14431 ARICA 2 1 68796U 26088E 26209.15302718 .00004743 00000-0 30566-3 0 9997 2 68796 97.5108 357.6239 0014147 300.7727 59.2109 15.08717130 14471 WASEDA-SAT-ZERO-II 1 68797U 26088F 26209.14123375 .00006269 00000-0 39900-3 0 9993 2 68797 97.5106 357.6368 0013835 300.3558 59.6302 15.09052894 14473 MANGARO-II-Piscus 1 68798U 26088G 26208.93098162 .00003646 00000-0 23359-3 0 9992 2 68798 97.5114 357.4697 0017454 304.1775 55.7799 15.09041979 14446 IO-86 1 40931U 26199.45381863 .00000000 00000-0 77536-4 0 07 2 40931 6.0006 322.6653 0012733 338.8432 273.6875 14.79294310 03 LILIUM-4 1 71922C 26067AC 26089.50133053 -.00014632 00000 0 -74472-3 0 04 2 71922 97.4497 49.1617 0004341 5.9603 355.7042 15.16896692 16